Location: Bow
(51.5261°N, 0.0167°W)
Time: 23:26:19
(UTC+00:00)

SPOT 5 - Pass Details

Date: 18 September 2020
Orbit: 623 x 815 km, 98.3° (Epoch: 30 October)

Event Time Altitude Azimuth Distance (km) Brightness Sun altitude
Exits shadow 22:19:27 36° 295° (WNW) 1,230 4.3 -33.4°
Drops below altitude 10° 22:23:19 10° 334° (NNW) 2,393 6.4 -33.7°
Sets 22:25:51 0° 341° (NNW) 3,342 7.4 -33.9°
